Content
SEND FEEDBACK

Daily
Averages
Monthly
Summary
Colombia

BOGOTA, COLOMBIA


Home > South America > Colombia
Elevation: 2547 meters     Latitude: 04 42N     Longitude: 074 08W

WEATHER
 
SELECT A DAY
Number of Records: 174,429;   Date Range: 6/30/96 - 12/18/14
 
SHARE

PRINT THIS DATA

[ ← Previous Day ]
WEATHER ALMANAC - 14 JUNE, 2013
[ Next Day → ]
[ °F ]   °C
Weather ElementAverageHighLow
Temperature13.9 °C20 °C (1:00 pm)7 °C (5:30 am)
Dewpoint8.8 °C10 °C (8:00 am)7 °C (3:00 am)
Humidity72.4 %100 % (4:00 am)38 % (1:00 pm)
Barometer1026.1 hPa1028.1 hPa (10:00 pm)1023.7 hPa (4:00 pm)
Wind Speed11.6 km/h25.3 km/h (10:00 am)
Weather ElementAverage
Visibility11.3 km
Wind DirectionESE (116.6 °)

Weather ElementTotal
Precipitation---
Heating Degree Days4.8 (Base 18.3)
Growing Degree Days3.5 (Base 10)
Averaged from 32 records on 14 June, 2013
WEATHER CONDITIONS BREAKOUT
WIND DIRECTION BREAKOUT
WEATHER BY HOUR - 14 JUNE, 2013
[ °F ]   °C
Local TimeTemperatureDewpointHumidityBarometerVisibilityWind DirectionWind SpeedGust SpeedPrecipitationEventsConditions
1:00 AM10 °C8.9 °C89 %11.3 kmWest (260°)7.2 km/hHaze
1:00 AM10 °C9 °C94 %1026.8 hPa10 kmWest (260°)7.4 km/hPartly Cloudy
2:00 AM9 °C8 °C93 %1026.1 hPa10 kmNorth (360°)7.4 km/hPartly Cloudy
3:00 AM8 °C7 °C93 %1026.1 hPa10 kmNNE (20°)5.6 km/hPartly Cloudy
4:00 AM8.3 °C8.3 °C100 %11.3 kmWest (260°)7.2 km/hHaze
4:00 AM8 °C7 °C93 %1025.7 hPa10 kmWNW (290°)5.6 km/hPartly Cloudy
5:00 AM8 °C7 °C93 %1025.7 hPa10 kmCalmPartly Cloudy
5:30 AM7 °C7 °C100 %1026.1 hPa10 kmCalmPartly Cloudy
6:00 AM8 °C7 °C93 %1026.4 hPa10 kmWSW (250°)7.4 km/hFogShallow Fog
7:00 AM9.4 °C9.4 °C99 %14.5 kmNE (50°)7.2 km/hHaze
7:00 AM10 °C9 °C94 %1027.1 hPa10 kmNE (50°)5.6 km/hScattered Clouds
8:00 AM15 °C10 °C72 %1027.1 hPa10 kmNE (50°)13 km/hScattered Clouds
9:00 AM17 °C9 °C59 %1027.4 hPa10 kmEast (90°)18.5 km/hScattered Clouds
10:00 AM18.3 °C8.3 °C41 %14.5 kmENE (70°)25.3 km/hHaze
10:00 AM18 °C8 °C52 %1027.4 hPa10 kmENE (70°)24.1 km/hScattered Clouds
11:00 AM18 °C9 °C56 %1026.8 hPa10 kmENE (70°)18.5 km/hScattered Clouds
12:00 PM19 °C8 °C49 %1026.4 hPa10 kmSE (130°)24.1 km/hScattered Clouds
1:00 PM20 °C8.9 °C38 %17.7 kmSE (130°)21.6 km/hHaze
1:00 PM20 °C9 °C49 %1025.4 hPa10 kmSE (130°)22.2 km/hMostly Cloudy
2:00 PM19 °C9 °C52 %1024.7 hPa10 kmSE (140°)18.5 km/hScattered Clouds
3:00 PM19 °C9 °C52 %1024 hPa10 kmESE (120°)18.5 km/hScattered Clouds
4:00 PM18.9 °C10 °C47 %17.7 kmESE (110°)14.3 km/hHaze
4:00 PM19 °C10 °C56 %1023.7 hPa10 kmESE (110°)14.8 km/hScattered Clouds
5:00 PM18 °C10 °C59 %1024 hPa10 kmSE (140°)14.8 km/hScattered Clouds
6:00 PM16 °C9 °C63 %1024.7 hPa10 kmSSE (160°)11.1 km/hMostly Cloudy
7:00 PM14.4 °C8.9 °C62 %17.7 kmESE (110°)7.2 km/hPartly Cloudy
7:00 PM15 °C9 °C67 %1025.7 hPa10 kmESE (110°)7.4 km/hScattered Clouds
8:00 PM14 °C9 °C72 %1026.8 hPa10 kmNE (40°)9.3 km/hScattered Clouds
9:00 PM14 °C9 °C72 %1027.8 hPa10 kmNNE (20°)7.4 km/hMostly Cloudy
10:00 PM12.2 °C10 °C82 %17.7 kmNE (50°)7.2 km/hHaze
10:00 PM12 °C10 °C88 %1028.1 hPa10 kmNE (50°)5.6 km/hMostly Cloudy
11:00 PM12 °C10 °C88 %1028.1 hPa10 kmNNE (30°)5.6 km/hMostly Cloudy
Hourly data recorded from SKBO, located 0 kilometers away from Bogota, Colombia







STORIES FROM OUR PARTNERS